Flag for U.S.A. Weather past 2 weeks in Columbia, South Carolina, U.S.A.

Now
72 °F

Rain. Fog.


Feels Like: 69 °F
Forecast: 70 / 86 °F
Wind: 6 mph from East

Location: Columbia Owens Downtown Airport

Current Time: Aug 31, 2015 at 1:45:48 AM

Latest Report: Aug 31, 2015 at 12:53 AM


Visibility: 4 mi

Pressure: 30.08 "Hg

Humidity: 91%

Dew point: 69 °F

Location of ColumbiaLocation

Historic Weather in Columbia — Graph

°F

Columbia temperature yesterday

Maximum temperature yesterday: 79 °F (at 12:53 PM)
Minimum temperature yesterday: 71 °F (at 11:53 PM)
Average temperature yesterday: 74 °F

Past Weeks' High & Low Weather Summary

 TemperatureHumidityPressure
High94 °F (Aug 25, 2:53 PM)94% (Aug 30, 6:53 PM)30.22 "Hg (Aug 30, 6:53 PM)
Low66 °F (Aug 29, 3:53 AM)30% (Aug 29, 2:53 PM)29.81 "Hg (Aug 25, 5:53 PM)
Average80 °F70%30.03 "Hg
* Reported Aug 16 12:53 AM — Aug 31 12:53 AM, Columbia, Weather by CustomWeather, © 2015

Note: Actual official high and low records may vary slightly from our data, if they occured in-between our weather recording intervals... More about our weather records

Advertising

Columbia weather history for previous 24 hours

 ConditionsComfort  
Time TempWeatherWind HumidityBarometerVisibility
12:53 AM
Mon, Aug 31
72 °FRain. Fog.6 mph91%30.08 "Hg4 mi
11:53 PM
Sun, Aug 30
71 °FHeavy rain. Fog.7 mph93%30.09 "Hg1 mi
10:53 PM72 °FRain. Fog.No wind93%30.12 "Hg3 mi
9:53 PM73 °FOvercast.5 mph90%30.12 "Hg10 mi
8:53 PM73 °FLow clouds.No wind90%30.12 "Hg10 mi
7:53 PM73 °FMostly cloudy.5 mph90%30.11 "Hg10 mi
6:53 PM73 °FLight rain. Fog.3 mph94%30.10 "Hg6 mi
5:53 PM72 °FLight rain. Fog.6 mph91%30.10 "Hg4 mi
4:53 PM78 °FPassing clouds.No wind79%30.09 "Hg10 mi
3:53 PM77 °FPartly sunny.No wind82%30.11 "Hg10 mi
2:53 PM76 °FCloudy.3 mph85%30.14 "Hg10 mi
2:01 PM76 °FHeavy rain. Broken clouds.6 mph80%30.15 "Hg2 mi
12:53 PM79 °FScattered clouds.5 mph62%30.15 "Hg10 mi
11:53 AM77 °FOvercast.3 mph66%30.17 "Hg10 mi
10:53 AM74 °FBroken clouds.5 mph74%30.16 "Hg10 mi
9:53 AM74 °FLight rain. Cloudy.No wind71%30.15 "Hg10 mi
8:53 AM74 °FPassing clouds.No wind64%30.13 "Hg10 mi
7:53 AM73 °FPassing clouds.No wind66%30.13 "Hg10 mi
6:53 AM72 °FPassing clouds.No wind73%30.13 "Hg10 mi
5:53 AM72 °FPassing clouds.No wind73%30.11 "Hg10 mi
4:53 AM73 °FClear.No wind74%30.10 "Hg10 mi
3:53 AM73 °FClear.No wind71%30.11 "Hg10 mi
2:53 AM73 °FClear.No wind71%30.11 "Hg10 mi
1:53 AM74 °FClear.No wind67%30.13 "Hg10 mi
Weather by CustomWeather, © 2015

See weather overviewHow to use our weather pages